User: anonymous   Login
Location: Unspecified
(0.0000°N, 0.0000°E)
Time: 12:18:16
(UTC+00:00)
Language:

NOSS 3-4 (A) - Orbit

View from above orbital plane
View from above orbital plane
View from above satellite
View from above satellite

Ground track
Ground track

The orbit data is extracted from the following two-line orbital elements,

1 31701U 07027A   17142.95778461 0.00000000  00000-0  00000-0 0    03
2 31701  63.4029 147.6970 0187000  23.3335 336.6664 13.40730408    01
Epoch (UTC): 22 May 2017 22:59:12
Eccentricity: 0.0187000
inclination: 63.4029°
perigee height: 966 km
apogee height: 1246 km
right ascension of ascending node: 147.6970°
argument of perigee: 23.3335°
revolutions per day: 13.40730408
mean anomaly at epoch: 336.6664°
orbit number at epoch: 0

The dashed part of the orbit path shows where the satellite is in the earth's shadow,  

DLR